Regional Weather Roundup
Issued by NWS

Home | Current Version | Previous Version | Graphics & Text | Print | Product List | Glossary On
Versions: 1 2 3 4 5 6 7 8 9 10 11 12 13 14 15 16 17 18 19 20 21 22 23 24 25 26 27 28 29 30 31 32 33 34 35 36 37 38 39 40 41 42 43 44 45 46 47 48 49 50
000
ASUS43 KDTX 281710
RWRMI
MICHIGAN HOURLY REGIONAL WEATHER ROUNDUP
NATIONAL WEATHER SERVICE DETROIT/PONTIAC MI
1200 PM EST WED JAN 28 2015

NOTE: "FAIR" INDICATES FEW OR NO CLOUDS BELOW 12,000 FEET WITH NO
SIGNIFICANT WEATHER AND/OR OBSTRUCTION TO VISIBILITY.

MIZ047>049-052>055-059>063-066>070-074>076-081>083-281800-
SOUTHEAST LOWER MICHIGAN

CITY           SKY/WX    TMP DP  RH WIND       PRES   REMARKS
ADRIAN         SUNNY     24  10  55 S8        30.34F
ALMA           SUNNY     25  15  65 S6        30.31F
ANN ARBOR      SUNNY     27   9  46 SW7       30.33F
BAD AXE        SUNNY     22  12  64 SW3       30.31F
DETROIT CITY   SUNNY     27  11  51 SE3       30.34F
DETROIT        MOSUNNY   26   7  44 S6        30.35F
FLINT          SUNNY     27  11  51 SW5       30.32F
GROSSE ILE     SUNNY     21  16  79 S7        30.34F
HILLSDALE      SUNNY     25   7  46 S6        30.29F
HOWELL         SUNNY     26  10  50 SW7       30.30F

CITY           SKY/WX    TMP DP  RH WIND       PRES   REMARKS
JACKSON        SUNNY     27   7  42 S8        30.30F
LAMBERTVILLE   SUNNY     28  10  47 CALM      30.35F
LANSING        SUNNY     27  11  51 S7        30.31F
LAPEER         NOT AVBL
MASON          SUNNY     25  11  54 S5        30.31S
MONROE         SUNNY     27  14  59 S6        30.33F
MT. CLEMENS    MOSUNNY   23  11  60 SE3       30.32F
PONTIAC        MOSUNNY   26   7  44 CALM      30.30S
PORT HOPE        N/A     24  10  55 VRB6      30.30F
PORT HURON     SUNNY     25  10  54 CALM      30.33F
TRI CITIES     SUNNY     26  12  55 SW8       30.31F
YPSILANTI      SUNNY     29  10  45 S7        30.34F
$$
MIZ043>046-050>051-056>058-064>065-071>073-077>080-281800-
SOUTHWEST LOWER MICHIGAN

CITY           SKY/WX    TMP DP  RH WIND       PRES   REMARKS
BATTLE CREEK   SUNNY     28   9  44 S10       30.30S
BENTON HARBOR  MOSUNNY   28  11  48 S13G20    30.28F
BIG RAPIDS     SUNNY     25  13  59 SE3       30.25S
COLDWATER      SUNNY     26   7  45 S12       30.30S
HOLLAND        MOSUNNY   29  12  49 S7        30.29F
GRAND RAPIDS   PTSUNNY   27  12  53 S12       30.29F
KALAMAZOO      SUNNY     27   8  44 S9        30.29F
MARSHALL       SUNNY     26  10  50 S8        30.29F
MUSKEGON       CLOUDY    28  12  51 S16G22    30.28F
$$
MIZ016>042-281800-
NORTHERN LOWER MICHIGAN

CITY           SKY/WX    TMP DP  RH WIND       PRES   REMARKS
ALPENA         SUNNY     22   3  44 CALM      30.28F
BEAVER ISLAND  CLOUDY    26  19  73 CALM      30.23F
BELLAIRE       SUNNY     22   7  52 CALM      30.27S
CADILLAC       SUNNY     24   8  51 S9        30.20F
CHARLEVOIX     MOSUNNY   24   8  51 S7        30.28S
FRANKFORT      SUNNY     28  18  64 S8        30.24F
GAYLORD        SUNNY     19  -1  41 S6        30.21F
GRAYLING       SUNNY     19   6  56 CALM      30.24F
HARBOR SPRINGS MOSUNNY   23   7  51 CALM      30.25S
HOUGHTON LAKE  SUNNY     23   7  50 SW3       30.25F
MANISTEE       PTSUNNY   27  12  54 S6        30.25F
OSCODA         SUNNY     25   8  48 SW5       30.29F
PELLSTON       MOSUNNY   20   6  55 SE3       30.26F
TRAVERSE CITY  PTSUNNY   27   8  44 S3        30.24F
$$
MIZ007>008-015-281800-
EASTERN UPPER MICHIGAN

CITY           SKY/WX    TMP DP  RH WIND       PRES   REMARKS
KINROSS        CLOUDY    25  10  54 SE9       30.24F
MACKINAC ISLAN MOSUNNY   24   4  44 S3        30.25S
NEWBERRY       CLOUDY    22  17  81 S8        30.21S
S. S. MARIE    CLOUDY    16   3  56 E3        30.24F
$$
MIZ004>006-011>014-085-281800-
CENTRAL UPPER MICHIGAN

CITY           SKY/WX    TMP DP  RH WIND       PRES   REMARKS
MANISTIQUE     CLOUDY    27  20  77 SW5       30.20F
ESCANABA       CLOUDY    27  18  69 S10G16    30.20F
MENOMINEE      CLOUDY    27  19  74 SW10G16   30.19F
SAWYER-GWINN   CLOUDY    25  18  74 S17G23    30.11F
$$
MIZ001>003-009>011-084-281800-
WESTERN UPPER MICHIGAN

CITY           SKY/WX    TMP DP  RH WIND       PRES   REMARKS
IRON MOUNTAIN  CLOUDY    25  18  74 S10       30.11F
HOUGHTON       CLOUDY    27  21  78 SE10      30.03F
COPPER HARBOR    N/A     29  22  75 VRB6      30.07F
IRONWOOD       CLOUDY    27  21  80 SE8       29.97F
$$

ABBREVIATIONS USED IN REMARKS
   TC - TEMPERATURE IN CELSIUS
  WCI - WIND CHILL INDEX
   HX - HEAT INDEX
  VSB - VISIBILITY




USA.gov is the U.S. government's official web portal to all federal, state and local government web resources and services.